CARTOSAT-2E

Last updated on Thu Jul 03 2025 00:02:30 GMT+0000 (Coordinated Universal Time)

1 42767U 17036C 25183.56901691 .00004095 00000+0 19747-3 0 9997 2 42767 97.4770 243.0220 0004399 93.5622 266.6116 15.19261780445064

Satellite not in orbit